Regional Weather Roundup
Issued by NWS Cleveland, OH

Home | Current Version | Previous Version | Graphics & Text | Print | Product List | Glossary On
Versions: 1 2 3 4 5 6 7 8 9 10 11 12 13 14 15 16 17 18 19 20 21 22 23 24 25 26 27 28 29 30 31 32 33 34 35 36 37 38 39 40 41 42 43 44 45 46 47 48 49 50
000
ASUS41 KCLE 030410
RWRCLE
OHIO REGIONAL WEATHER ROUNDUP
NATIONAL WEATHER SERVICE CLEVELAND, OH
1100 PM EST FRI DEC 02 2016

NOTE: "FAIR" INDICATES FEW OR NO CLOUDS BELOW 12,000 FEET WITH NO
SIGNIFICANT WEATHER AND/OR OBSTRUCTIONS TO VISIBILITY.

OHZ001>008-015>018-024>027-034-035-043-044-030500-
   NORTHWEST OHIO

CITY           SKY/WX    TMP DP  RH WIND       PRES   REMARKS
DEFIANCE       CLEAR     34  26  72 CALM      30.28S
FINDLAY        CLEAR     33  26  75 W8        30.26R WCI  26
TOLEDO EXPRESS CLOUDY    36  29  75 W8        30.26R
TOLEDO EXEC    CLOUDY    38  31  76 W8        30.27R
LIMA           CLOUDY    33  29  85 W5        30.27S WCI  29
$$

OHZ009>014-019>023-028>033-038-089-030500-
   NORTHEAST OHIO

CITY           SKY/WX    TMP DP  RH WIND       PRES   REMARKS
CLE-HOPKINS    CLOUDY    38  28  67 W12       30.25R
CLE-LAKEFRONT  CLOUDY    40  30  67 W20G26    30.21R
CUY CO. ARPT   CLOUDY    39  32  75 NW13G23   30.21R
LORAIN-ELYRIA  CLOUDY    36  27  69 NW13G22   30.24R
ASHTABULA      CLOUDY    38  31  76 W10       30.16R
AKRON-CANTON   CLOUDY    36  28  73 W13       30.20S
WOOSTER        MOCLDY    33  28  81 W9        30.24R WCI  25
MANSFIELD      MOCLDY    34  30  85 W7        30.23R WCI  28
YOUNGSTOWN     CLOUDY    37  29  72 W13       30.17R
$$

OHZ042-051>053-060>062-070>072-077>081-030500-
  SOUTHWEST OHIO

CITY           SKY/WX    TMP DP  RH WIND       PRES   REMARKS
CINC-COVINGTON CLOUDY    38  32  79 NW6       30.30S
CINC-LUNKEN    CLOUDY    40  33  76 NW3       30.33S
HAMILTON       CLOUDY    38  33  82 W3        30.32S
DAYTON         CLOUDY    36  30  79 W8        30.29S
WRIGHT-PAT AFB CLOUDY    38  30  74 W7        30.29S
DAYTON GENERAL CLOUDY    37  30  75 NW3       30.29R
WILMINGTON     CLOUDY    37  31  78 W9        30.29R
$$

OHZ036-037-039>041-045>050-054>059-063>069-073>076-082>088-030500-
  CENTRAL AND SOUTHEAST OHIO

CITY           SKY/WX    TMP DP  RH WIND       PRES   REMARKS
COLUMBUS       CLOUDY    38  32  79 W12       30.27R
OSU AIRPORT    CLOUDY    37  32  82 W7        30.27R
BOLTON FIELD   CLOUDY    37  32  81 W7        30.28S
RICKENBACK AFB CLOUDY    37  31  78 W7        30.28S
NEWARK         CLOUDY    38  30  73 W9        30.26R
MARION         CLEAR     34  27  75 NW8       30.27R WCI  27
LANCASTER      CLOUDY    38  31  76 W9        30.28R
ZANESVILLE     CLOUDY    38  30  73 W6        30.26R
NEW PHILLY     CLEAR     36  31  82 W6        30.25R
$$




USA.gov is the U.S. government's official web portal to all federal, state and local government web resources and services.